SCP
0 0 -0 -0 -0 -0 -0 -0 -0 -0 0 0 -0 -0 -0 0 -0 -0 -0 -0 -0 -0 -0 -0 -0 -0 -0 -0 -0 -0 -0 -0 0 0 0 -0 0 0 0 0 0 0 -0
0 0 0 -0 -0 -0 -0 -0 -0 -0 -0 0 0 0 0 0 0 -0 -0 -0 -0 -0 -0 -0 -0 -0 -0 -0 -0 -0 0 0 0 0 0 0 0 0 0 -0 -0 -0 -0
0 0 0 0 -0 -0 -0 -0 -0 -0 -0 -0 0 0 0 0 0 -0 -0 -0 -0 -0 -0 -0 -0 -0 -0 -0 -0 0 0 0 0 0 0 0 -0 -0 -0 -0 -0 -0 -0
0 0 0 0 0 -0 -0 -0 -0 0 0 0 0 0 0 0 0 0 -0 -0 -0 -0 -0 -0 -0 -0 -0 -0 -0 0 0 0 -0 0 0 -0 -0 -0 -0 -0 -0 -0 -0
0 0 0 0 0 0 -0 -0 0 0 0 0 0 0 0 0 0 0 0 -0 -0 -0 -0 -0 -0 -0 -0 -0 -0 0 0 -0 -0 0 0 0 0 -0 -0 -0 -0 -0 -0
0 0 0 0 0 0 -0 -0 0 0 0 0 0 0 0 0 0 0 0 0 -0 -0 -0 -0 -0 -0 -0 -0 0 0 -0 -0 -0 0 0 0 0 -0 -0 -0 -0 -0 -0
0 0 0 0 0 0 -0 -0 0 0 0 0 0 0 0 0 0 0 0 -0 -0 -0 -0 -0 -0 -0 -0 -0 0 -0 -0 -0 0 0 0 0 0 -0 -0 -0 -0 -0 0
0 0 0 0 0 0 0 -0 0 0 0 0 0 0 0 0 0 0 0 0 -0 -0 -0 -0 -0 -0 0 0 0 -0 -0 0 0 0 0 0 -0 -0 -0 -0 0 0 0
0 0 0 0 0 0 0 0 0 0 0 0 0 0 0 0 0 0 0 0 0 0 -0 -0 -0 0 0 0 0 -0 -0 0 0 0 0 0 -0 -0 -0 0 0 0 0
0 0 0 0 0 0 0 0 0 0 0 0 0 0 0 0 0 0 0 0 0 0 0 0 0 0 0 0 0 0 0 0 0 0 0 0 0 0 0 0 0 0 0
0 0 0 0 0 0 0 0 0 0 0 0 0 0 0 0 0 0 0 0 0 0 0 0 0 0 0 0 0 0 0 0 0 0 0 0 0 0 0 0 0 0 0
1 0 0 0 0 0 0 0 0 0 0 0 0 0 0 0 0 0 0 0 0 0 0 0 0 0 0 0 0 0 0 0 0 0 0 0 0 0 0 0 0 0 0
1 0 0 0 0 0 0 0 0 0 0 0 0 0 0 0 0 0 0 0 0 0 0 0 0 0 0 0 0 0 0 0 0 0 0 0 0 0 0 0 0 0 0
1 0 0 0 0 0 0 0 0 0 0 0 0 0 0 0 0 0 0 0 0 0 0 0 0 0 0 0 0 0 0 0 0 0 0 0 0 0 0 0 0 0 0
1 1 0 0 0 0 0 0 0 0 0 0 0 0 0 0 0 0 0 0 0 0 0 0 0 0 0 0 0 0 0 0 0 0 0 0 0 0 0 0 0 0 0
0 1 0 0 0 0 0 0 0 0 0 0 0 0 0 0 0 0 0 0 0 0 0 0 0 0 0 0 0 0 0 0 0 0 0 0 0 0 0 0 0 0 0
0 0 0 0 0 0 0 0 0 0 0 0 0 0 0 0 0 0 0 0 0 0 0 0 0 0 0 0 0 0 0 0 0 0 0 0 0 0 0 0 0 0 0
0 0 0 0 0 0 0 0 0 0 0 0 0 0 0 0 0 0 0 0 0 0 0 0 0 0 0 0 0 0 0 0 0 0 0 0 0 0 0 0 0 0 0
0 0 0 0 0 0 0 0 0 0 0 0 0 0 0 0 0 0 0 0 0 0 0 0 0 0 0 0 0 0 0 0 0 0 0 0 0 0 0 0 0 0 0
0 0 0 0 0 0 0 0 0 0 0 0 0 0 0 0 0 0 0 0 0 0 0 0 0 0 0 0 0 0 0 0 0 0 0 0 0 0 0 0 0 0 0
0 0 0 0 0 0 0 0 0 0 0 0 0 0 0 0 0 0 0 0 0 0 0 0 0 0 0 0 0 0 0 0 0 0 0 0 0 0 0 0 0 0 0
0 0 0 0 0 0 0 0 0 0 0 0 0 0 0 0 0 0 0 0 0 0 0 0 0 0 0 0 0 0 0 0 0 0 0 0 0 0 0 0 0 0 0
0 0 0 0 0 0 0 0 0 0 0 0 0 0 0 0 0 0 0 0 0 0 0 0 0 0 0 0 0 0 0 0 0 0 0 0 0 0 0 0 0 0 0
0 0 0 0 0 0 0 0 0 0 0 0 0 0 0 0 0 0 0 0 0 0 0 0 0 0 0 0 0 0 0 0 0 0 0 0 0 0 0 0 0 0 0
0 0 0 0 0 0 0 0 0 0 0 0 0 0 0 0 0 0 0 0 0 0 0 0 0 0 0 0 0 0 0 0 0 0 0 0 0 0 0 0 0 0 0
0 0 0 0 0 0 0 0 0 0 0 0 0 0 0 0 0 0 0 0 0 0 0 0 0 0 0 0 0 0 0 0 0 0 0 0 0 0 0 0 0 0 0
Wind_Speed_500mb
61 67 65 62 58 51 46 44 41 40 42 44 44 48 44 39 35 35 35 34 33 34 35 36 36 37 37 37 37 37 35 33 30 30 34 27 24 24 23 22 20 23 22
60 70 70 64 58 52 46 42 40 41 45 45 44 46 46 40 33 36 35 33 33 34 37 38 37 37 36 35 35 33 31 29 28 27 27 21 22 23 26 30 27 27 24
64 71 70 65 60 55 51 45 41 42 47 48 45 43 44 39 35 36 36 34 33 36 37 38 37 35 35 34 34 34 30 27 26 24 23 23 30 29 31 27 29 27 31
62 72 71 66 64 61 55 46 44 46 47 46 47 43 43 40 36 36 34 35 36 36 36 36 34 33 34 35 36 32 29 24 22 23 24 27 23 23 25 23 24 25 27
58 73 72 66 61 56 50 48 47 48 47 42 45 42 44 43 40 40 34 35 35 34 34 33 32 33 33 35 35 30 26 24 17 20 20 18 26 26 24 20 17 14 10
56 74 72 67 60 54 51 49 49 49 48 45 43 44 44 47 42 39 35 37 37 33 31 29 31 32 33 34 33 26 26 26 24 19 18 24 32 21 14 9 7 5 3
57 75 72 67 61 55 52 50 50 51 48 45 46 46 47 46 46 42 40 37 36 33 30 29 29 30 30 33 30 25 28 22 20 17 21 27 22 14 9 6 7 7 8
55 77 73 67 61 57 54 50 51 53 54 49 48 48 47 45 45 41 39 39 36 33 31 29 28 29 29 33 32 32 28 21 15 13 19 22 12 10 8 7 8 9 14
51 75 74 68 62 59 56 52 51 50 51 54 51 48 47 45 42 41 40 38 35 33 30 27 25 27 29 33 34 30 24 20 13 12 14 10 12 16 9 12 10 14 16
56 68 75 71 65 63 58 53 49 51 57 54 52 49 46 43 37 41 39 37 34 32 29 24 21 26 32 33 33 29 27 22 18 12 8 9 15 14 9 13 16 15 12
59 65 72 72 69 67 61 56 52 54 55 56 53 49 50 45 45 40 38 37 34 31 26 22 20 26 33 34 34 33 30 25 20 15 12 12 19 17 10 17 11 9 8
76 73 69 74 71 69 64 60 57 56 57 58 56 53 52 49 45 41 38 34 33 31 26 22 24 29 33 35 36 35 29 25 21 14 16 14 17 18 14 11 7 3 5
84 77 73 73 73 71 69 64 61 58 55 58 60 57 54 51 45 43 41 40 37 32 25 26 27 32 36 37 35 30 30 26 20 16 17 15 16 19 17 15 12 12 12
85 80 75 72 77 75 70 67 62 61 58 55 57 59 55 52 48 45 41 38 36 31 28 26 29 32 41 39 32 28 32 28 21 20 19 19 18 22 21 24 16 13 18
81 86 74 71 76 80 74 70 66 61 57 52 52 55 54 53 50 46 41 39 37 33 28 25 30 31 38 37 36 33 31 30 28 24 23 23 20 24 28 25 24 20 23
76 82 75 71 73 83 77 73 67 61 56 53 52 54 55 54 51 47 43 42 40 35 30 23 22 26 31 34 35 37 36 33 31 27 27 27 27 27 32 35 31 25 29
82 84 82 74 71 78 79 73 68 62 57 55 53 53 58 56 51 45 43 45 42 37 32 35 33 31 33 37 39 40 39 37 35 31 31 32 33 36 43 44 43 36 34
82 82 85 78 78 72 77 71 67 64 61 56 54 57 59 54 52 44 50 45 38 38 41 38 35 35 35 38 41 44 43 41 40 38 36 36 37 40 41 42 44 43 41
78 83 85 85 78 75 73 73 66 62 62 58 54 56 60 57 52 49 52 46 52 51 49 44 38 36 37 40 43 46 47 47 45 42 39 39 40 43 45 47 48 48 45
74 78 81 80 79 77 72 72 69 66 61 64 62 61 61 61 58 58 57 55 57 55 52 50 43 41 40 41 44 48 49 52 50 48 45 43 43 45 47 49 49 48 46
68 76 83 86 82 82 79 79 76 73 70 69 66 64 59 62 64 64 64 62 60 59 58 56 50 46 48 47 44 47 51 55 56 55 52 50 50 50 50 51 50 49 48
46 62 87 89 87 83 83 79 78 76 73 69 70 64 62 64 69 66 65 69 65 64 61 63 56 53 54 51 52 45 37 54 63 61 59 57 54 53 51 50 50 51 48
44 60 73 86 85 78 79 78 76 72 68 69 72 72 69 64 66 68 67 65 65 69 68 66 60 58 59 56 60 51 22 31 30 53 65 63 57 55 51 50 48 47 47
54 57 68 72 90 87 88 87 84 86 81 76 75 80 70 65 65 68 72 71 68 69 72 68 64 64 58 67 65 69 69 39 23 18 35 45 49 53 47 44 47 45 44
55 51 64 71 73 87 86 92 93 92 82 76 74 80 74 71 72 72 70 75 70 72 74 71 69 68 64 69 71 70 70 74 64 50 38 44 46 45 43 44 45 47 44
60 61 61 77 83 75 82 89 77 80 72 77 74 81 79 78 78 78 80 77 80 67 76 74 72 71 68 72 73 74 73 72 75 70 64 63 60 55 49 46 45 45 42
Wind_Direction_500mb
179 172 175 174 173 175 176 173 167 164 161 157 158 158 159 161 158 155 146 143 138 134 131 129 128 126 124 119 113 113 113 113 110 102 93 89 83 81 80 80 85 95 93
174 175 175 175 175 176 176 181 171 170 167 161 164 162 161 161 157 152 147 142 140 137 134 132 129 125 123 119 117 118 115 114 113 111 97 87 82 81 88 87 86 88 91
175 175 175 173 174 176 181 181 175 174 172 170 167 160 158 161 157 149 151 146 144 140 136 133 130 127 124 121 123 120 115 107 103 107 91 85 87 90 94 104 102 99 98
173 176 176 176 176 176 182 183 179 175 174 173 168 159 153 159 161 151 150 149 149 141 138 135 131 130 128 128 129 127 121 112 116 108 96 107 91 102 111 115 118 118 122
174 178 179 179 180 182 184 181 181 179 175 172 163 162 157 156 162 156 158 154 149 142 141 138 132 129 131 134 134 136 130 124 128 123 113 108 105 114 116 120 115 121 117
175 181 181 181 179 182 180 180 181 179 176 176 166 161 160 158 161 156 160 157 153 148 146 138 132 131 136 140 143 139 129 128 122 127 126 117 111 113 115 124 115 103 36
180 184 182 181 179 181 180 179 180 179 171 168 166 160 163 161 160 162 165 159 155 154 147 139 135 137 143 147 149 141 133 131 123 125 129 119 115 121 149 116 81 42 35
183 184 183 182 180 180 180 179 178 179 171 166 167 167 165 164 165 169 167 164 160 155 149 145 143 142 146 158 151 144 140 143 142 140 139 126 124 151 174 123 78 66 78
187 187 185 182 181 180 181 179 179 176 167 168 171 168 169 170 169 169 167 166 163 157 150 150 148 149 153 163 162 156 152 162 169 166 165 155 150 165 167 126 92 103 93
184 192 188 183 181 180 181 180 181 178 171 170 175 171 172 167 171 170 170 168 166 160 160 161 154 154 169 169 166 167 158 173 188 189 195 170 153 180 195 130 116 111 71
182 190 192 186 183 182 181 180 180 178 173 172 176 176 180 171 180 175 173 171 169 169 165 163 160 160 175 176 171 169 171 189 204 214 204 178 160 186 191 160 141 128 73
184 187 194 191 187 183 182 182 182 181 176 175 176 179 185 181 180 178 177 174 172 172 170 175 167 170 178 178 174 178 190 198 209 226 199 183 165 183 200 203 218 210 28
190 186 192 196 191 188 184 184 184 185 185 183 182 183 183 184 181 183 182 179 178 179 185 181 172 170 179 181 188 189 195 210 218 221 206 199 173 184 214 218 208 244 309
194 192 193 196 194 192 189 188 187 187 189 191 191 187 185 182 185 187 187 185 183 186 190 187 180 175 185 193 200 205 208 220 230 234 222 213 188 185 215 230 222 216 289
202 195 194 198 200 196 193 192 192 190 192 193 194 187 187 188 189 190 189 191 188 191 198 204 194 189 197 208 210 219 221 227 235 238 228 219 201 198 204 227 241 227 283
214 204 196 201 204 200 197 197 195 196 196 194 194 192 191 192 193 193 193 191 191 195 199 207 218 217 214 221 225 228 232 237 237 237 226 223 212 198 207 223 233 250 283
219 204 198 196 202 203 203 203 201 199 199 199 198 197 198 198 196 195 195 192 197 201 198 209 228 224 223 227 231 234 236 237 238 234 231 227 223 220 219 231 248 267 279
212 199 198 196 200 201 206 207 205 204 203 203 199 200 203 205 204 202 197 196 202 207 209 214 233 228 224 228 232 235 238 238 239 238 235 232 229 233 239 247 254 265 272
215 199 199 199 200 199 206 209 207 209 208 210 203 202 202 210 206 205 203 204 205 209 216 223 226 234 232 226 229 237 240 242 242 242 242 240 237 237 242 249 255 261 265
219 207 200 201 202 204 206 208 208 210 212 214 217 214 208 213 209 207 207 208 216 220 221 225 229 234 240 237 232 232 238 243 244 243 242 242 242 244 249 254 257 260 262
217 213 209 201 203 205 206 209 208 209 211 215 220 221 215 216 216 210 208 211 219 222 229 233 232 234 236 234 233 231 232 237 244 247 247 246 245 248 253 258 260 261 261
231 219 215 205 203 205 212 212 213 212 212 222 222 223 223 220 219 214 215 216 220 221 228 234 234 233 236 240 231 231 237 243 243 243 247 249 251 255 258 261 261 261 263
234 230 215 212 210 212 215 215 214 214 219 225 219 223 225 224 222 220 220 222 227 228 228 231 237 235 241 245 244 233 220 232 244 244 243 243 247 255 261 260 262 265 266
227 224 223 217 216 220 221 220 219 219 218 219 222 226 227 227 225 224 223 224 230 232 236 237 242 242 243 248 244 241 239 250 244 255 248 245 244 250 256 260 267 268 269
226 222 252 239 223 218 223 221 224 226 226 230 222 225 228 229 230 227 230 229 234 237 235 242 241 243 247 252 250 253 246 244 249 252 259 258 254 263 265 261 265 269 271
221 212 226 236 221 217 220 224 221 219 224 221 227 229 231 230 230 227 230 234 237 239 239 240 242 247 251 253 254 252 251 250 249 251 254 260 268 269 268 269 266 271 275
Wind_Speed_850mb
61 67 65 62 58 51 46 44 41 40 42 44 44 48 44 39 35 35 35 34 33 34 35 36 36 37 37 37 37 37 35 33 30 30 34 27 24 24 23 22 20 23 22
60 70 70 64 58 52 46 42 40 41 45 45 44 46 46 40 33 36 35 33 33 34 37 38 37 37 36 35 35 33 31 29 28 27 27 21 22 23 26 30 27 27 24
64 71 70 65 60 55 51 45 41 42 47 48 45 43 44 39 35 36 36 34 33 36 37 38 37 35 35 34 34 34 30 27 26 24 23 23 30 29 31 27 29 27 31
62 72 71 66 64 61 55 46 44 46 47 46 47 43 43 40 36 36 34 35 36 36 36 36 34 33 34 35 36 32 29 24 22 23 24 27 23 23 25 23 24 25 27
58 73 72 66 61 56 50 48 47 48 47 42 45 42 44 43 40 40 34 35 35 34 34 33 32 33 33 35 35 30 26 24 17 20 20 18 26 26 24 20 17 14 10
56 74 72 67 60 54 51 49 49 49 48 45 43 44 44 47 42 39 35 37 37 33 31 29 31 32 33 34 33 26 26 26 24 19 18 24 32 21 14 9 7 5 3
57 75 72 67 61 55 52 50 50 51 48 45 46 46 47 46 46 42 40 37 36 33 30 29 29 30 30 33 30 25 28 22 20 17 21 27 22 14 9 6 7 7 8
55 77 73 67 61 57 54 50 51 53 54 49 48 48 47 45 45 41 39 39 36 33 31 29 28 29 29 33 32 32 28 21 15 13 19 22 12 10 8 7 8 9 14
51 75 74 68 62 59 56 52 51 50 51 54 51 48 47 45 42 41 40 38 35 33 30 27 25 27 29 33 34 30 24 20 13 12 14 10 12 16 9 12 10 14 16
56 68 75 71 65 63 58 53 49 51 57 54 52 49 46 43 37 41 39 37 34 32 29 24 21 26 32 33 33 29 27 22 18 12 8 9 15 14 9 13 16 15 12
59 65 72 72 69 67 61 56 52 54 55 56 53 49 50 45 45 40 38 37 34 31 26 22 20 26 33 34 34 33 30 25 20 15 12 12 19 17 10 17 11 9 8
76 73 69 74 71 69 64 60 57 56 57 58 56 53 52 49 45 41 38 34 33 31 26 22 24 29 33 35 36 35 29 25 21 14 16 14 17 18 14 11 7 3 5
84 77 73 73 73 71 69 64 61 58 55 58 60 57 54 51 45 43 41 40 37 32 25 26 27 32 36 37 35 30 30 26 20 16 17 15 16 19 17 15 12 12 12
85 80 75 72 77 75 70 67 62 61 58 55 57 59 55 52 48 45 41 38 36 31 28 26 29 32 41 39 32 28 32 28 21 20 19 19 18 22 21 24 16 13 18
81 86 74 71 76 80 74 70 66 61 57 52 52 55 54 53 50 46 41 39 37 33 28 25 30 31 38 37 36 33 31 30 28 24 23 23 20 24 28 25 24 20 23
76 82 75 71 73 83 77 73 67 61 56 53 52 54 55 54 51 47 43 42 40 35 30 23 22 26 31 34 35 37 36 33 31 27 27 27 27 27 32 35 31 25 29
82 84 82 74 71 78 79 73 68 62 57 55 53 53 58 56 51 45 43 45 42 37 32 35 33 31 33 37 39 40 39 37 35 31 31 32 33 36 43 44 43 36 34
82 82 85 78 78 72 77 71 67 64 61 56 54 57 59 54 52 44 50 45 38 38 41 38 35 35 35 38 41 44 43 41 40 38 36 36 37 40 41 42 44 43 41
78 83 85 85 78 75 73 73 66 62 62 58 54 56 60 57 52 49 52 46 52 51 49 44 38 36 37 40 43 46 47 47 45 42 39 39 40 43 45 47 48 48 45
74 78 81 80 79 77 72 72 69 66 61 64 62 61 61 61 58 58 57 55 57 55 52 50 43 41 40 41 44 48 49 52 50 48 45 43 43 45 47 49 49 48 46
68 76 83 86 82 82 79 79 76 73 70 69 66 64 59 62 64 64 64 62 60 59 58 56 50 46 48 47 44 47 51 55 56 55 52 50 50 50 50 51 50 49 48
46 62 87 89 87 83 83 79 78 76 73 69 70 64 62 64 69 66 65 69 65 64 61 63 56 53 54 51 52 45 37 54 63 61 59 57 54 53 51 50 50 51 48
44 60 73 86 85 78 79 78 76 72 68 69 72 72 69 64 66 68 67 65 65 69 68 66 60 58 59 56 60 51 22 31 30 53 65 63 57 55 51 50 48 47 47
54 57 68 72 90 87 88 87 84 86 81 76 75 80 70 65 65 68 72 71 68 69 72 68 64 64 58 67 65 69 69 39 23 18 35 45 49 53 47 44 47 45 44
55 51 64 71 73 87 86 92 93 92 82 76 74 80 74 71 72 72 70 75 70 72 74 71 69 68 64 69 71 70 70 74 64 50 38 44 46 45 43 44 45 47 44
60 61 61 77 83 75 82 89 77 80 72 77 74 81 79 78 78 78 80 77 80 67 76 74 72 71 68 72 73 74 73 72 75 70 64 63 60 55 49 46 45 45 42
Wind_Direction_850mb
179 172 175 174 173 175 176 173 167 164 161 157 158 158 159 161 158 155 146 143 138 134 131 129 128 126 124 119 113 113 113 113 110 102 93 89 83 81 80 80 85 95 93
174 175 175 175 175 176 176 181 171 170 167 161 164 162 161 161 157 152 147 142 140 137 134 132 129 125 123 119 117 118 115 114 113 111 97 87 82 81 88 87 86 88 91
175 175 175 173 174 176 181 181 175 174 172 170 167 160 158 161 157 149 151 146 144 140 136 133 130 127 124 121 123 120 115 107 103 107 91 85 87 90 94 104 102 99 98
173 176 176 176 176 176 182 183 179 175 174 173 168 159 153 159 161 151 150 149 149 141 138 135 131 130 128 128 129 127 121 112 116 108 96 107 91 102 111 115 118 118 122
174 178 179 179 180 182 184 181 181 179 175 172 163 162 157 156 162 156 158 154 149 142 141 138 132 129 131 134 134 136 130 124 128 123 113 108 105 114 116 120 115 121 117
175 181 181 181 179 182 180 180 181 179 176 176 166 161 160 158 161 156 160 157 153 148 146 138 132 131 136 140 143 139 129 128 122 127 126 117 111 113 115 124 115 103 36
180 184 182 181 179 181 180 179 180 179 171 168 166 160 163 161 160 162 165 159 155 154 147 139 135 137 143 147 149 141 133 131 123 125 129 119 115 121 149 116 81 42 35
183 184 183 182 180 180 180 179 178 179 171 166 167 167 165 164 165 169 167 164 160 155 149 145 143 142 146 158 151 144 140 143 142 140 139 126 124 151 174 123 78 66 78
187 187 185 182 181 180 181 179 179 176 167 168 171 168 169 170 169 169 167 166 163 157 150 150 148 149 153 163 162 156 152 162 169 166 165 155 150 165 167 126 92 103 93
184 192 188 183 181 180 181 180 181 178 171 170 175 171 172 167 171 170 170 168 166 160 160 161 154 154 169 169 166 167 158 173 188 189 195 170 153 180 195 130 116 111 71
182 190 192 186 183 182 181 180 180 178 173 172 176 176 180 171 180 175 173 171 169 169 165 163 160 160 175 176 171 169 171 189 204 214 204 178 160 186 191 160 141 128 73
184 187 194 191 187 183 182 182 182 181 176 175 176 179 185 181 180 178 177 174 172 172 170 175 167 170 178 178 174 178 190 198 209 226 199 183 165 183 200 203 218 210 28
190 186 192 196 191 188 184 184 184 185 185 183 182 183 183 184 181 183 182 179 178 179 185 181 172 170 179 181 188 189 195 210 218 221 206 199 173 184 214 218 208 244 309
194 192 193 196 194 192 189 188 187 187 189 191 191 187 185 182 185 187 187 185 183 186 190 187 180 175 185 193 200 205 208 220 230 234 222 213 188 185 215 230 222 216 289
202 195 194 198 200 196 193 192 192 190 192 193 194 187 187 188 189 190 189 191 188 191 198 204 194 189 197 208 210 219 221 227 235 238 228 219 201 198 204 227 241 227 283
214 204 196 201 204 200 197 197 195 196 196 194 194 192 191 192 193 193 193 191 191 195 199 207 218 217 214 221 225 228 232 237 237 237 226 223 212 198 207 223 233 250 283
219 204 198 196 202 203 203 203 201 199 199 199 198 197 198 198 196 195 195 192 197 201 198 209 228 224 223 227 231 234 236 237 238 234 231 227 223 220 219 231 248 267 279
212 199 198 196 200 201 206 207 205 204 203 203 199 200 203 205 204 202 197 196 202 207 209 214 233 228 224 228 232 235 238 238 239 238 235 232 229 233 239 247 254 265 272
215 199 199 199 200 199 206 209 207 209 208 210 203 202 202 210 206 205 203 204 205 209 216 223 226 234 232 226 229 237 240 242 242 242 242 240 237 237 242 249 255 261 265
219 207 200 201 202 204 206 208 208 210 212 214 217 214 208 213 209 207 207 208 216 220 221 225 229 234 240 237 232 232 238 243 244 243 242 242 242 244 249 254 257 260 262
217 213 209 201 203 205 206 209 208 209 211 215 220 221 215 216 216 210 208 211 219 222 229 233 232 234 236 234 233 231 232 237 244 247 247 246 245 248 253 258 260 261 261
231 219 215 205 203 205 212 212 213 212 212 222 222 223 223 220 219 214 215 216 220 221 228 234 234 233 236 240 231 231 237 243 243 243 247 249 251 255 258 261 261 261 263
234 230 215 212 210 212 215 215 214 214 219 225 219 223 225 224 222 220 220 222 227 228 228 231 237 235 241 245 244 233 220 232 244 244 243 243 247 255 261 260 262 265 266
227 224 223 217 216 220 221 220 219 219 218 219 222 226 227 227 225 224 223 224 230 232 236 237 242 242 243 248 244 241 239 250 244 255 248 245 244 250 256 260 267 268 269
226 222 252 239 223 218 223 221 224 226 226 230 222 225 228 229 230 227 230 229 234 237 235 242 241 243 247 252 250 253 246 244 249 252 259 258 254 263 265 261 265 269 271
221 212 226 236 221 217 220 224 221 219 224 221 227 229 231 230 230 227 230 234 237 239 239 240 242 247 251 253 254 252 251 250 249 251 254 260 268 269 268 269 266 271 275